SWA1558 KBNA-KMCO

Flight info

Callsign SWA1558
Flight time 0h 59m
Altitude 37000
Route TIPPN4 DENST THRSR ZJAYX GRNCH5
Aircraft B738/M-SDE2E3FGHIRWXY/LB1

Departure

Time 2026-05-05 00:25
Airport Nashville International Airport (KBNA)

Arrival

Time 2026-05-05 01:24
Airport Orlando International Airport (KMCO)
Time Latitude Longitude Altitude Speed Heading
2026-05-05 00:05 36.12824 -86.66876 561 ft 0 kts 254°
2026-05-05 00:14 36.12828 -86.66861 561 ft 2 kts 248°
2026-05-05 00:15 36.12832 -86.66843 561 ft 2 kts 257°
2026-05-05 00:15 36.12835 -86.66830 561 ft 0 kts 253°
2026-05-05 00:15 36.12838 -86.66821 561 ft 1 kts 214°
2026-05-05 00:15 36.12848 -86.66818 561 ft 1 kts 158°
2026-05-05 00:16 36.12854 -86.66823 561 ft 1 kts 122°
2026-05-05 00:16 36.12857 -86.66828 561 ft 0 kts 130°
2026-05-05 00:18 36.12852 -86.66821 561 ft 3 kts 130°
2026-05-05 00:18 36.12825 -86.66785 561 ft 7 kts 135°
2026-05-05 00:19 36.12767 -86.66760 561 ft 11 kts 197°
2026-05-05 00:19 36.12700 -86.66831 561 ft 14 kts 222°
2026-05-05 00:19 36.12634 -86.66908 561 ft 9 kts 232°
2026-05-05 00:19 36.12633 -86.66985 561 ft 11 kts 306°
2026-05-05 00:20 36.12696 -86.67071 561 ft 14 kts 313°
2026-05-05 00:20 36.12767 -86.67172 561 ft 15 kts 309°
2026-05-05 00:20 36.12820 -86.67278 561 ft 13 kts 270°
2026-05-05 00:20 36.12759 -86.67377 561 ft 15 kts 223°
2026-05-05 00:21 36.12666 -86.67465 561 ft 18 kts 208°
2026-05-05 00:21 36.12556 -86.67556 561 ft 19 kts 223°
2026-05-05 00:21 36.12458 -86.67659 561 ft 15 kts 207°
2026-05-05 00:21 36.12379 -86.67697 561 ft 8 kts 204°
2026-05-05 00:22 36.12355 -86.67748 561 ft 8 kts 275°
2026-05-05 00:22 36.12369 -86.67811 561 ft 5 kts 288°
2026-05-05 00:22 36.12374 -86.67828 561 ft 0 kts 289°
2026-05-05 00:23 36.12383 -86.67859 561 ft 7 kts 289°
2026-05-05 00:24 36.12398 -86.67943 561 ft 12 kts 261°
2026-05-05 00:24 36.12315 -86.68002 561 ft 16 kts 197°
2026-05-05 00:24 36.12086 -86.68095 561 ft 66 kts 198°
2026-05-05 00:24 36.11412 -86.68365 561 ft 133 kts 198°
2026-05-05 00:25 36.10373 -86.68787 640 ft 177 kts 198°
2026-05-05 00:25 36.09215 -86.69260 1363 ft 175 kts 199°
2026-05-05 00:25 36.08063 -86.69683 2088 ft 177 kts 196°
2026-05-05 00:25 36.06867 -86.70100 2742 ft 181 kts 197°
2026-05-05 00:26 36.05694 -86.70501 3540 ft 176 kts 197°
2026-05-05 00:26 36.04490 -86.70946 3975 ft 193 kts 199°
2026-05-05 00:26 36.03120 -86.71493 4314 ft 219 kts 199°
2026-05-05 00:26 36.01611 -86.72090 4897 ft 236 kts 199°
2026-05-05 00:27 36.00017 -86.72718 5537 ft 250 kts 200°
2026-05-05 00:27 35.98355 -86.73369 6420 ft 254 kts 199°
2026-05-05 00:27 35.96681 -86.73992 7317 ft 257 kts 197°
2026-05-05 00:27 35.94873 -86.74275 8027 ft 271 kts 182°
2026-05-05 00:28 35.93000 -86.73842 8862 ft 281 kts 163°
2026-05-05 00:28 35.91287 -86.72671 9725 ft 290 kts 149°
2026-05-05 00:28 35.89666 -86.71133 10422 ft 299 kts 146°
2026-05-05 00:28 35.87952 -86.69505 10679 ft 323 kts 148°
2026-05-05 00:29 35.86057 -86.67835 10991 ft 344 kts 149°
2026-05-05 00:29 35.84089 -86.66169 11659 ft 352 kts 149°
2026-05-05 00:29 35.82019 -86.64445 12414 ft 359 kts 149°
2026-05-05 00:29 35.79958 -86.62739 13188 ft 363 kts 149°
2026-05-05 00:30 35.77827 -86.60983 13934 ft 369 kts 149°
2026-05-05 00:30 35.75700 -86.59235 14689 ft 373 kts 149°
2026-05-05 00:30 35.73558 -86.57476 15432 ft 377 kts 149°
2026-05-05 00:30 35.71364 -86.55677 16141 ft 382 kts 149°
2026-05-05 00:31 35.69139 -86.53854 16847 ft 386 kts 149°
2026-05-05 00:31 35.66884 -86.52009 17521 ft 391 kts 149°
2026-05-05 00:31 35.64616 -86.50155 18191 ft 395 kts 149°
2026-05-05 00:31 35.62303 -86.48309 18841 ft 399 kts 152°
2026-05-05 00:32 35.59877 -86.46674 19478 ft 401 kts 158°
2026-05-05 00:32 35.57286 -86.45364 20085 ft 403 kts 165°
2026-05-05 00:32 35.54613 -86.44387 20713 ft 405 kts 168°
2026-05-05 00:32 35.51888 -86.43490 21285 ft 409 kts 168°
2026-05-05 00:33 35.49106 -86.42595 21880 ft 413 kts 169°
2026-05-05 00:33 35.46307 -86.41701 22438 ft 418 kts 169°
2026-05-05 00:33 35.43501 -86.40796 22999 ft 422 kts 167°
2026-05-05 00:33 35.40715 -86.39629 23531 ft 429 kts 160°
2026-05-05 00:34 35.38049 -86.38020 24076 ft 436 kts 151°
2026-05-05 00:34 35.35572 -86.35822 24602 ft 443 kts 143°
2026-05-05 00:34 35.33197 -86.33348 25131 ft 447 kts 142°
2026-05-05 00:34 35.30846 -86.30826 25589 ft 451 kts 142°
2026-05-05 00:35 35.28500 -86.28296 26067 ft 455 kts 141°
2026-05-05 00:35 35.21979 -86.21267 27002 ft 461 kts 141°
2026-05-05 00:35 35.12161 -86.10704 27912 ft 470 kts 142°
2026-05-05 00:35 35.02267 -86.00079 28948 ft 477 kts 141°
2026-05-05 00:36 34.92239 -85.89339 30262 ft 481 kts 142°
2026-05-05 00:36 34.82026 -85.78447 31048 ft 488 kts 141°
2026-05-05 00:36 34.71787 -85.67427 32222 ft 492 kts 140°
2026-05-05 00:36 34.61908 -85.55901 33248 ft 496 kts 138°
2026-05-05 00:37 34.51815 -85.44041 34307 ft 498 kts 139°
2026-05-05 00:37 34.41743 -85.32464 35232 ft 501 kts 140°
2026-05-05 00:37 34.31891 -85.21231 36014 ft 502 kts 140°
2026-05-05 00:37 34.27449 -85.16174 36396 ft 503 kts 140°
2026-05-05 00:38 34.23535 -85.11720 36700 ft 504 kts 140°
2026-05-05 00:38 34.19089 -85.06669 37002 ft 505 kts 140°
2026-05-05 00:38 34.16525 -85.03759 37028 ft 507 kts 140°
2026-05-05 00:39 34.11440 -84.97993 37022 ft 500 kts 140°
2026-05-05 00:39 34.02736 -84.88153 37009 ft 497 kts 140°
2026-05-05 00:40 33.83186 -84.66164 37008 ft 501 kts 140°
2026-05-05 00:40 33.73877 -84.55743 37007 ft 498 kts 140°
2026-05-05 00:41 33.68890 -84.50170 37009 ft 494 kts 140°
2026-05-05 00:41 33.63700 -84.44868 37009 ft 492 kts 147°
2026-05-05 00:42 33.57917 -84.40690 37013 ft 486 kts 157°
2026-05-05 00:42 33.51919 -84.37019 37020 ft 486 kts 158°
2026-05-05 00:43 33.37208 -84.28162 37056 ft 485 kts 159°
2026-05-05 00:43 32.76428 -83.92300 37036 ft 493 kts 160°
2026-05-05 00:44 32.41305 -83.71785 37034 ft 498 kts 160°
2026-05-05 00:44 31.66569 -83.28815 37065 ft 505 kts 161°
2026-05-05 00:45 31.60325 -83.25261 37063 ft 500 kts 161°
2026-05-05 00:45 31.54096 -83.21764 37064 ft 497 kts 162°
2026-05-05 00:46 31.47840 -83.18263 37064 ft 498 kts 161°
2026-05-05 00:46 31.41575 -83.14762 37064 ft 499 kts 161°
2026-05-05 00:47 31.35286 -83.11253 37063 ft 499 kts 161°
2026-05-05 00:47 31.29068 -83.07787 37063 ft 498 kts 161°
2026-05-05 00:48 31.22781 -83.04289 37064 ft 498 kts 161°
2026-05-05 00:48 31.16550 -83.00829 37063 ft 500 kts 161°
2026-05-05 00:49 31.10248 -82.97334 37053 ft 499 kts 161°
2026-05-05 00:49 31.04064 -82.93906 37055 ft 498 kts 161°
2026-05-05 00:50 30.97780 -82.90434 37055 ft 502 kts 161°
2026-05-05 00:50 30.91560 -82.86787 37057 ft 503 kts 157°
2026-05-05 00:51 30.85726 -82.82226 37063 ft 508 kts 149°
2026-05-05 00:51 30.80069 -82.77287 37064 ft 510 kts 148°
2026-05-05 00:52 30.74450 -82.72293 37063 ft 509 kts 148°
2026-05-05 00:52 30.68855 -82.67289 37063 ft 507 kts 148°
2026-05-05 00:53 30.63282 -82.62294 37064 ft 505 kts 148°
2026-05-05 00:53 30.57734 -82.57320 37063 ft 504 kts 148°
2026-05-05 00:54 30.52212 -82.52372 37063 ft 503 kts 148°
2026-05-05 00:54 30.46683 -82.47423 37063 ft 502 kts 148°
2026-05-05 00:55 30.41180 -82.42501 37063 ft 499 kts 148°
2026-05-05 00:55 30.35716 -82.37622 37064 ft 499 kts 148°
2026-05-05 00:56 30.30239 -82.32737 37063 ft 497 kts 149°
2026-05-05 00:56 30.24772 -82.27882 37063 ft 494 kts 151°
2026-05-05 00:57 30.18907 -82.24020 37060 ft 478 kts 168°
2026-05-05 00:57 30.15800 -82.22973 37070 ft 467 kts 176°
2026-05-05 00:57 30.12606 -82.22240 37067 ft 465 kts 178°
2026-05-05 00:58 30.06269 -82.20957 37063 ft 462 kts 179°
2026-05-05 00:58 29.99974 -82.19707 37009 ft 464 kts 179°
2026-05-05 00:58 29.96784 -82.19080 36481 ft 471 kts 179°
2026-05-05 00:59 29.93573 -82.18444 35649 ft 469 kts 179°
2026-05-05 00:59 29.90396 -82.17810 34932 ft 462 kts 179°
2026-05-05 00:59 29.87566 -82.17241 34291 ft 457 kts 179°
2026-05-05 00:59 29.84358 -82.16597 33562 ft 452 kts 179°
2026-05-05 01:00 29.81343 -82.15993 32873 ft 447 kts 179°
2026-05-05 01:00 29.78348 -82.15394 32175 ft 442 kts 179°
2026-05-05 01:00 29.75316 -82.14789 31455 ft 442 kts 179°
2026-05-05 01:00 29.72285 -82.14194 30726 ft 453 kts 179°
2026-05-05 01:01 29.69184 -82.13580 30132 ft 448 kts 179°
2026-05-05 01:01 29.66160 -82.12972 29587 ft 438 kts 179°
2026-05-05 01:01 29.63195 -82.12378 29016 ft 428 kts 179°
2026-05-05 01:01 29.60305 -82.11801 28461 ft 419 kts 179°
2026-05-05 01:02 29.57493 -82.11242 27927 ft 416 kts 178°
2026-05-05 01:02 29.54569 -82.10671 27376 ft 430 kts 178°
2026-05-05 01:02 29.51644 -82.10099 26789 ft 432 kts 177°
2026-05-05 01:02 29.48719 -82.09517 26227 ft 423 kts 177°
2026-05-05 01:03 29.45876 -82.08952 26063 ft 419 kts 177°
2026-05-05 01:03 29.43015 -82.08390 26007 ft 428 kts 177°
2026-05-05 01:03 29.40075 -82.07813 25466 ft 427 kts 176°
2026-05-05 01:03 29.37181 -82.07240 24858 ft 423 kts 176°
2026-05-05 01:04 29.34252 -82.06599 24285 ft 431 kts 172°
2026-05-05 01:04 29.28587 -82.04404 23115 ft 432 kts 159°
2026-05-05 01:04 29.25974 -82.02866 22565 ft 426 kts 156°
2026-05-05 01:05 29.23351 -82.01250 21998 ft 422 kts 156°
2026-05-05 01:05 29.20812 -81.99671 21445 ft 418 kts 155°
2026-05-05 01:05 29.18282 -81.98093 20893 ft 412 kts 155°
2026-05-05 01:05 29.15775 -81.96528 20342 ft 408 kts 155°
2026-05-05 01:06 29.13302 -81.94982 19801 ft 404 kts 155°
2026-05-05 01:06 29.10861 -81.93450 19259 ft 400 kts 154°
2026-05-05 01:06 29.08508 -81.91835 18727 ft 397 kts 150°
2026-05-05 01:06 29.06272 -81.89976 18195 ft 396 kts 143°
2026-05-05 01:07 29.04224 -81.87945 17676 ft 393 kts 140°
2026-05-05 01:07 29.02208 -81.85850 17102 ft 390 kts 140°
2026-05-05 01:07 29.00245 -81.83772 16572 ft 382 kts 139°
2026-05-05 01:07 28.98390 -81.81638 16102 ft 372 kts 133°
2026-05-05 01:08 28.96752 -81.79398 16028 ft 365 kts 130°
2026-05-05 01:08 28.95166 -81.77108 16033 ft 372 kts 130°
2026-05-05 01:08 28.93561 -81.74754 16026 ft 373 kts 129°
2026-05-05 01:08 28.91999 -81.72451 16014 ft 370 kts 129°
2026-05-05 01:09 28.90446 -81.70155 15709 ft 357 kts 129°
2026-05-05 01:09 28.88953 -81.67946 15210 ft 350 kts 129°
2026-05-05 01:09 28.87480 -81.65767 14743 ft 342 kts 129°
2026-05-05 01:09 28.86016 -81.63605 14298 ft 353 kts 129°
2026-05-05 01:10 28.84502 -81.61369 13796 ft 356 kts 129°
2026-05-05 01:10 28.83002 -81.59151 13304 ft 347 kts 129°
2026-05-05 01:10 28.81566 -81.57027 12897 ft 336 kts 129°
2026-05-05 01:10 28.80090 -81.55041 12616 ft 320 kts 138°
2026-05-05 01:11 28.78383 -81.53542 12389 ft 304 kts 150°
2026-05-05 01:11 28.76586 -81.52362 11970 ft 297 kts 153°
2026-05-05 01:11 28.74774 -81.51274 11598 ft 289 kts 154°
2026-05-05 01:11 28.73027 -81.50239 11253 ft 284 kts 154°
2026-05-05 01:12 28.71216 -81.49165 10917 ft 299 kts 154°
2026-05-05 01:12 28.69384 -81.48073 10520 ft 296 kts 154°
2026-05-05 01:12 28.67609 -81.47010 10161 ft 288 kts 154°
2026-05-05 01:12 28.65869 -81.45967 9915 ft 275 kts 154°
2026-05-05 01:13 28.64227 -81.44983 9766 ft 264 kts 154°
2026-05-05 01:13 28.62558 -81.43986 9422 ft 280 kts 154°
2026-05-05 01:13 28.60774 -81.43053 9040 ft 276 kts 165°
2026-05-05 01:13 28.58945 -81.42636 8737 ft 265 kts 174°
2026-05-05 01:14 28.57173 -81.42456 8548 ft 250 kts 181°
2026-05-05 01:14 28.55477 -81.42439 8324 ft 240 kts 181°
2026-05-05 01:14 28.53830 -81.42424 8029 ft 232 kts 181°
2026-05-05 01:14 28.52224 -81.42418 7794 ft 240 kts 181°
2026-05-05 01:15 28.50517 -81.42417 7506 ft 247 kts 181°
2026-05-05 01:15 28.48820 -81.42416 7204 ft 240 kts 181°
2026-05-05 01:15 28.47198 -81.42416 6948 ft 231 kts 180°
2026-05-05 01:15 28.45622 -81.42416 6702 ft 228 kts 180°
2026-05-05 01:16 28.44023 -81.42416 6458 ft 237 kts 180°
2026-05-05 01:16 28.42327 -81.42417 6166 ft 243 kts 180°
2026-05-05 01:16 28.40643 -81.42417 5885 ft 242 kts 180°
2026-05-05 01:16 28.38966 -81.42417 5611 ft 240 kts 180°
2026-05-05 01:17 28.37320 -81.42421 5343 ft 236 kts 180°
2026-05-05 01:17 28.35721 -81.42435 5075 ft 228 kts 180°
2026-05-05 01:17 28.34169 -81.42474 4970 ft 223 kts 180°
2026-05-05 01:17 28.32569 -81.42545 4743 ft 229 kts 180°
2026-05-05 01:18 28.30995 -81.42647 4444 ft 227 kts 181°
2026-05-05 01:18 28.29431 -81.42788 4109 ft 224 kts 182°
2026-05-05 01:18 28.27906 -81.42889 3753 ft 220 kts 167°
2026-05-05 01:18 28.26561 -81.42242 3405 ft 205 kts 134°
2026-05-05 01:19 28.25877 -81.40921 3061 ft 190 kts 100°
2026-05-05 01:19 28.25848 -81.39470 2679 ft 184 kts 86°
2026-05-05 01:19 28.26003 -81.38041 2284 ft 179 kts 83°
2026-05-05 01:19 28.26175 -81.36682 1983 ft 169 kts 83°
2026-05-05 01:20 28.26557 -81.35484 1991 ft 165 kts 51°
2026-05-05 01:20 28.27534 -81.34740 2025 ft 175 kts 29°
2026-05-05 01:20 28.28652 -81.34180 1988 ft 174 kts 28°
2026-05-05 01:20 28.29775 -81.33716 1999 ft 174 kts 24°
2026-05-05 01:21 28.30909 -81.33240 1989 ft 172 kts 39°
2026-05-05 01:21 28.31932 -81.32534 2009 ft 173 kts 29°
2026-05-05 01:21 28.33057 -81.32004 1987 ft 176 kts 19°
2026-05-05 01:21 28.34278 -81.31993 1649 ft 180 kts 350°
2026-05-05 01:22 28.35370 -81.32497 1425 ft 156 kts 341°
2026-05-05 01:22 28.36414 -81.32702 1469 ft 156 kts
2026-05-05 01:22 28.37477 -81.32684 1150 ft 147 kts
2026-05-05 01:22 28.38511 -81.32646 881 ft 148 kts
2026-05-05 01:23 28.39538 -81.32652 598 ft 150 kts
2026-05-05 01:23 28.40578 -81.32659 384 ft 147 kts
2026-05-05 01:23 28.41596 -81.32664 161 ft 145 kts
2026-05-05 01:23 28.42557 -81.32682 106 ft 125 kts 359°
2026-05-05 01:24 28.43163 -81.32683 105 ft 50 kts
2026-05-05 01:24 28.43467 -81.32681 105 ft 37 kts
2026-05-05 01:24 28.43658 -81.32649 105 ft 22 kts 25°
2026-05-05 01:24 28.43742 -81.32549 105 ft 13 kts 59°
2026-05-05 01:25 28.43780 -81.32478 105 ft 7 kts 58°
2026-05-05 01:25 28.43807 -81.32427 105 ft 10 kts 59°
2026-05-05 01:25 28.43857 -81.32334 105 ft 17 kts 59°
2026-05-05 01:25 28.43929 -81.32198 105 ft 22 kts 59°
2026-05-05 01:26 28.43986 -81.32064 105 ft 14 kts 83°
2026-05-05 01:26 28.43973 -81.31979 105 ft 8 kts 115°
2026-05-05 01:26 28.43947 -81.31922 105 ft 8 kts 117°
2026-05-05 01:26 28.43920 -81.31852 105 ft 10 kts 105°
2026-05-05 01:27 28.43920 -81.31765 105 ft 11 kts 87°
2026-05-05 01:27 28.43922 -81.31671 105 ft 12 kts 90°
2026-05-05 01:27 28.43921 -81.31569 105 ft 13 kts 90°
2026-05-05 01:27 28.43924 -81.31462 105 ft 13 kts 87°
2026-05-05 01:28 28.43928 -81.31353 109 ft 12 kts 87°
2026-05-05 01:28 28.43933 -81.31241 122 ft 15 kts 86°
2026-05-05 01:28 28.43941 -81.31087 122 ft 22 kts 87°
2026-05-05 01:28 28.43942 -81.30907 122 ft 23 kts 90°
2026-05-05 01:29 28.43934 -81.30726 122 ft 23 kts 95°
2026-05-05 01:29 28.43921 -81.30527 111 ft 26 kts 94°
2026-05-05 01:29 28.43912 -81.30331 105 ft 20 kts 93°
2026-05-05 01:29 28.43862 -81.30257 105 ft 10 kts 191°
2026-05-05 01:30 28.43796 -81.30286 105 ft 11 kts 201°
2026-05-05 01:30 28.43716 -81.30320 105 ft 11 kts 194°
2026-05-05 01:30 28.43659 -81.30303 105 ft 7 kts 160°
2026-05-05 01:30 28.43621 -81.30290 105 ft 4 kts 165°
2026-05-05 01:31 28.43608 -81.30286 105 ft 1 kts 165°
2026-05-05 01:31 28.43603 -81.30285 105 ft 0 kts 165°